    Orbital elements:
    2018 LZ5                                                 Earth MOID = 0.1891 AU
    Epoch 2019 Apr. 27.0 TT = JDT 2458600.5                 Veres
    M  66.62931              (2000.0)            P               Q
    n   0.26048858     Peri.  159.36000     +0.87040004     +0.49168166
    a   2.4281579      Node   171.05852     -0.47162935     +0.84754972
    e   0.5092912      Incl.    9.46247     -0.14131357     +0.19977143
    P   3.78           H   20.1           G   0.15           U   0
    Residuals in seconds of arc
    140525 F51  0.1-  0.2+    180807 T08  0.7+  0.4-    180921 703  0.8-  0.2-
    140525 F51  0.1-  0.1-    180807 T08  0.7-  0.0     180921 T05  1.0+  0.1-
    140525 F51  0.3-  0.1+    180812 A17  0.1+  0.1+    180921 T05  0.6+  0.0
    140525 F51  0.1-  0.4+    180812 A17  0.2-  0.0     180921 T05  0.5-  0.5+
    140531 F51  0.1-  0.3+    180812 A17  0.2-  0.1+    180921 T05  0.2-  0.2-
    140531 F51  0.4+  0.2+    180816 A17  0.1-  0.1-    180922 I41  0.2+  0.3-
    140531 F51  0.4+  0.3+    180816 A17  0.1-  0.1-    180922 I41  0.1+  0.2-
    180614 F51  0.1+  0.0     180816 A17  0.3-  0.1-    180922 I41  0.0   0.5-
    180614 F51  0.1+  0.0     180821 T05  0.5-  0.0     180922 I41  0.1+  0.3-
    180614 F51  0.1+  0.0     180821 T05  0.0   0.0     180922 I41  0.2+  0.1-
    180616 L01  0.1+  0.4+    180821 T05  0.0   0.5-    180929 H21  0.0   0.2-
    180616 L01  0.7+  0.3-    180821 T05  0.2+  0.2+    180929 H21  0.0   0.2+
    180616 L01  0.1-  1.2+    180823 H21  0.3-  0.3+    180929 H21  0.3+  0.2-
    180616 568  0.0   0.0     180823 H21  0.1+  0.4+    180929 I52  0.3+  0.1+
    180616 568  0.1+  0.0     180823 H21  0.2+  0.4+    180929 I52  0.1+  0.0
    180616 568  0.0   0.0     180823 H21  0.2-  0.3+    180929 I52  0.1+  0.3+
    180617 807  0.1-  0.2-    180823 H21  0.3-  0.4+    180929 I52  0.0   0.0
    180617 807  0.2-  0.2-    180903 T08  0.8-  1.1+    180930 H21  0.0   0.1-
    180617 807  0.3-  0.1-    180903 T08  0.2+  0.3-    180930 H21  0.0   0.0
    180617 H21  0.6+  0.4-    180903 T08  0.4+  0.7-    180930 H21  0.3+  0.4+
    180617 H21  0.4+  0.3-    180903 T08  0.4+  0.1-    181001 H21  0.2+  0.1-
    180620 I52  0.2-  0.1-    180904 204  0.1-  0.0     181001 H21  0.2+  0.2+
    180620 I52  0.6+  0.3-    180904 204  0.0   0.1+    181001 H21  0.1+  0.2+
    180620 I52  0.5-  0.1+    180904 204  0.0   0.0     181001 H21  0.3+  0.3-
    180620 I52  0.5+  0.3-    180904 I52  0.1+  0.2+    181001 H21  0.3+  0.3-
    180622 I52  0.0   0.2-    180904 I52  0.1-  0.0     181001 H21  0.4-  0.0
    180622 I52  0.3-  0.1+    180904 I52  0.3-  0.3+    181003 T05  0.1-  0.5-
    180622 I52  0.2+  0.1+    180904 I52  0.0   0.4+    181003 T05  0.2-  0.2+
    180623 I52  0.1+  0.0     180904 T08  0.9+  0.7+    181003 T05  0.0   0.0
    180623 I52  1.4+  1.3-    180904 T08  0.2-  0.7+    181003 T05  0.2-  0.3-
    180623 I52  0.0   2.3-    180904 T08  0.1+  0.2+    181005 F52  0.1+  0.0
    180624 I52  0.4+  0.0     180904 T08  1.3-  0.2-    181005 F52  0.1+  0.0
    180624 I52  0.5-  0.6+    180906 703  0.3-  0.0     181005 F52  0.0   0.0
    180624 I52  0.2+  0.1+    180906 703  0.3-  0.1-    181005 F52  0.0   0.1+
    180701 I52  0.3-  0.1+    180906 703  0.3-  0.5+    181006 703  0.8+  0.2+
    180701 I52  0.5-  0.2-    180906 703  0.8-  0.6-    181006 703  0.5+  0.5-
    180701 I52  0.5-  0.4+    180908 I52  0.2-  0.1+    181006 703  0.9+  0.6-
    180701 I52  0.1-  0.2+    180908 I52  0.1-  0.0     181006 703  0.5+  0.1-
    180703 I52  0.2-  0.2-    180908 I52  0.1-  0.1+    181006 G96  0.2+  0.3+
    180703 I52  0.0   0.2-    180908 I52  0.1-  0.1+    181006 G96  0.1+  0.1+
    180703 I52  0.2-  0.0     180909 703  0.1+  0.3-    181006 G96  0.2+  0.1+
    180705 I52  0.1-  0.3+    180909 703  0.8+  0.1-    181006 G96  0.0   0.0
    180705 I52  0.1-  0.4-    180909 703  0.3-  0.3-    181010 703  1.2+  0.8+
    180705 I52  0.1+  0.2-    180909 703  0.3-  0.3+    181010 703  0.3+  0.4-
    180705 I52  0.1+  0.1-    180910 I41  0.2+  0.3-    181010 703  0.5+  0.1+
    180706 I52  0.7-  0.4-    180910 I41  0.3+  0.3-    181011 D29  1.2-  0.3-
    180706 I52  0.1+  0.5+    180910 I41  0.3+  0.2-    181011 D29  0.9-  0.3-
    180706 I52  0.3-  0.8-    180910 I41  0.1+  0.3-    181011 D29  0.6-  0.4+
    180706 I52  0.4-  0.0     180910 T05  0.3-  0.3-    181011 D29  0.0   0.1+
    180708 H21  0.2-  0.3+    180910 T05  0.3+  0.4-    181011 D29  0.4-  0.6+
    180708 H21  0.0   0.1-    180910 T05  0.3+  0.3+    181011 D29  0.4+  0.1+
    180708 H21  0.1+  0.4+    180910 T05  0.3+  0.1+    181015 F52  0.2-  0.3+
    180708 A17  0.0   0.1+    180912 G96  0.9+  0.4-    181015 F52  0.0   0.0
    180709 A17  0.3+  0.4+    180912 G96  0.1-  0.0     181015 F52  0.1+  0.0
    180712 H21  0.1+  0.1+    180912 G96  0.1+  0.3+    181015 F52  0.1+  0.0
    180712 H21  0.1+  0.1+    180912 G96  0.8-  1.2+    181027 I52  0.3+  0.3-
    180712 H21  0.2-  0.2-    180915 703  1.1-  0.6-    181027 I52  0.2+  0.0
    180713 A17  0.1+  0.1-    180915 703  0.2+  0.8-    181027 I52  0.2-  0.6-
    180713 A17  0.3+  0.5+    180915 H21  0.0   0.2+    181027 I52  0.5+  0.4+
    180713 A17  0.4+  0.6+    180915 H21  0.1-  0.2+    181027 691  0.2+  0.2+
    180714 H21  0.2+  0.1+    180915 703  0.5+  0.1+    181027 691  0.0   0.3+
    180714 H21  0.1+  0.1+    180915 H21  0.1-  0.3+    181027 691  0.1-  0.7+
    180714 H21  0.2+  0.4+    180915 H21  0.1-  0.3+    181102 691  0.3-  0.3+
    180717 A17  0.1+  0.1+    180915 703  0.9+  0.1+    181102 691  0.3-  0.5+
    180717 A17  0.2+  0.1-    180915 H21  0.0   0.4+    181102 691  0.4-  0.5+
    180717 A17  0.2+  0.1-    180916 I41  0.3+  0.3-    181112 F52  0.1+  0.0
    180723 A17  0.3+  0.1+    180916 I41  0.3+  0.3-    181112 F52  0.1-  0.1-
    180723 A17  0.1+  0.2-    180916 703  0.3+  0.3-    181112 F52  0.1+  0.1-
    180723 A17  0.3-  0.2-    180916 703  0.1+  0.4+    181112 F52  0.2+  0.1+
    180725 H21  0.5-  0.2+    180916 703  0.3-  0.2-    181116 691  0.7-  1.3+
    180725 H21  0.7-  0.0     180916 703  0.0   0.3+    181116 691  0.7-  0.2-
    180725 H21  0.6-  0.0     180916 I41  0.1+  0.3-    181116 691  0.3-  0.4+
    180802 H21  0.2-  0.2+    180916 I41  0.2+  0.3-    181202 807  0.0   0.0
    180802 H21  0.1+  0.2+    180917 A17  0.1-  0.2-    181202 807  0.1-  0.2-
    180802 H21  0.0   0.2+    180917 A17  0.2-  0.3-    181202 807  0.1-  0.4-
    180802 A17  0.2-  0.3+    180917 A17  0.2-  0.2-    181206 H21  0.0   0.6+
    180802 A17  0.2-  0.0     180919 I41  0.1+  0.3-    181206 H21  0.0   0.5+
    180802 A17  0.1-  0.2-    180919 I41  0.2+  0.2-    181206 H21  0.2-  0.5+
    180803 H21  0.3+  0.3+    180919 I41  0.2+  0.3-    181207 H21  0.6-  0.2+
    180803 H21  0.1+  0.5+    180919 I41  0.1+  0.3-    181207 H21  0.5-  0.3+
    180803 H21  0.0   0.1+    180919 F52  0.0   0.1+    181207 H21  0.3-  0.3+
    180804 H21  0.1-  0.1+    180919 F52  0.0   0.1+    181211 H21  0.4-  0.3+
    180804 H21  0.2-  0.4+    180919 F52  0.1+  0.1+    181211 H21  0.5-  0.6+
    180804 H21  0.1+  0.3+    180919 F52  0.0   0.1+    181211 H21  0.5-  0.7+
    180807 T08  0.7+  0.6-    180921 703  0.1-  0.3+
    180807 T08  0.7-  1.2-    180921 703  0.9-  0.8-
    
    Ephemeris:
    2018 LZ5                 a,e,i = 2.43, 0.51, 9                   q = 1.1915
    Date    TT    R. A. (2000) Decl.     Delta      r    Elong.  Phase     V
    2019 09 17    08 48 54.1 +11 23 54   3.8436  3.1748    42.4    12.3    26.3
    ...
    2019 10 02    09 04 21.5 +10 10 13   3.7267  3.2248    53.0    14.4    26.3
    ...
    2019 10 10    09 11 42.6 +09 31 37   3.6517  3.2503    58.9    15.3    26.3
    ...
    2019 10 16    09 16 46.1 +09 03 29   3.5903  3.2689    63.5    15.8    26.3
    2019 10 17    09 17 34.3 +08 58 53   3.5797  3.2720    64.2    15.9    26.3
    2019 10 18    09 18 21.8 +08 54 19   3.5690  3.2750    65.0    16.0    26.3
    ...
    2019 10 24    09 22 51.2 +08 27 34   3.5025  3.2930    69.7    16.5    26.3
    ...
    2019 11 01    09 28 06.0 +07 54 09   3.4087  3.3163    76.3    16.9    26.3
    ...
    2019 11 16    09 35 22.3 +07 01 02   3.2224  3.3579    89.2    17.1    26.2
    
    A. U. Tomatic                (C) Copyright 2019 MPC           M.P.E.C. 2019-U13
    


    Read MPEC 2019-U12 Read MPEC 2019-U14


    MPEC number:

    Enter an MPEC number in one of the following forms:

    • 1997-B01 (the full form)
    • J97B01 (the packed version of the full form)
    • B01 (the abbreviated form)